| time (UTC) | temp F | wind direction | speed MPH | gust MPH | rain 1hr in | rain 24hr in | rain mn in | humidity % | barometer mb |
| 20260510173100 | 44 | 327 | 7.0 | 14.0 | 0.00 | 0.00 | 0.00 | 56 | 1020.9 |
| 20260510171604 | 45 | 349 | 5.0 | 19.0 | 0.00 | 0.00 | 0.00 | 56 | 1020.9 |
| 20260510170059 | 44 | 23 | 6.0 | 14.0 | 0.00 | 0.00 | 0.00 | 56 | 1021.0 |
| 20260510164558 | 44 | 330 | 7.0 | 13.0 | 0.00 | 0.00 | 0.00 | 55 | 1021.1 |
| 20260510163100 | 44 | 314 | 6.0 | 12.0 | 0.00 | 0.00 | 0.00 | 55 | 1020.9 |
| 20260510161554 | 43 | 24 | 6.0 | 9.0 | 0.00 | 0.00 | 0.00 | 59 | 1020.7 |
| 20260510160057 | 43 | 41 | 5.0 | 10.0 | 0.00 | 0.00 | 0.00 | 58 | 1020.4 |
| 20260510154555 | 44 | 357 | 7.0 | 11.0 | 0.00 | 0.00 | 0.00 | 59 | 1020.3 |
| 20260510153051 | 43 | 346 | 7.0 | 16.0 | 0.00 | 0.00 | 0.00 | 62 | 1020.2 |
| 20260510151550 | 42 | 328 | 7.0 | 13.0 | 0.00 | 0.00 | 0.00 | 62 | 1020.1 |
| 20260510150047 | 43 | 337 | 8.0 | 16.0 | 0.00 | 0.00 | 0.00 | 65 | 1019.9 |
| 20260510144547 | 41 | 312 | 5.0 | 15.0 | 0.00 | 0.00 | 0.00 | 68 | 1019.8 |
| 20260510143050 | 42 | 286 | 7.0 | 14.0 | 0.00 | 0.00 | 0.00 | 67 | 1019.6 |
| 20260510141542 | 41 | 345 | 6.0 | 13.0 | 0.00 | 0.00 | 0.00 | 69 | 1019.5 |
| 20260510140040 | 41 | 307 | 6.0 | 14.0 | 0.00 | 0.00 | 0.00 | 70 | 1019.2 |
| 20260510134543 | 41 | 319 | 8.0 | 12.0 | 0.00 | 0.00 | 0.00 | 69 | 1019.2 |
| 20260510133038 | 40 | 299 | 7.0 | 14.0 | 0.00 | 0.00 | 0.00 | 71 | 1019.2 |
| 20260510131535 | 40 | 271 | 6.0 | 12.0 | 0.00 | 0.00 | 0.00 | 71 | 1018.9 |
| 20260510130034 | 40 | 329 | 6.0 | 11.0 | 0.00 | 0.00 | 0.00 | 72 | 1018.8 |
| 20260510124533 | 40 | 312 | 5.0 | 15.0 | 0.00 | 0.00 | 0.00 | 74 | 1018.5 |
| 20260510123030 | 39 | 319 | 7.0 | 13.0 | 0.00 | 0.00 | 0.00 | 73 | 1018.3 |
| 20260510121529 | 39 | 293 | 6.0 | 14.0 | 0.00 | 0.00 | 0.00 | 74 | 1018.1 |
| 20260510120027 | 38 | 304 | 5.0 | 14.0 | 0.00 | 0.00 | 0.00 | 75 | 1017.8 |
| 20260510114529 | 37 | 293 | 7.0 | 11.0 | 0.00 | 0.00 | 0.00 | 77 | 1017.7 |
| 20260510113022 | 37 | 304 | 3.0 | 7.0 | 0.00 | 0.00 | 0.00 | 78 | 1017.6 |
| 20260510111520 | 36 | 288 | 2.0 | 5.0 | 0.00 | 0.00 | 0.00 | 78 | 1017.4 |
| 20260510110017 | 36 | 285 | 3.0 | 5.0 | 0.00 | 0.00 | 0.00 | 77 | 1017.1 |
| 20260510104514 | 37 | 293 | 2.0 | 6.0 | 0.00 | 0.00 | 0.00 | 75 | 1016.8 |
| 20260510103011 | 37 | 278 | 5.0 | 8.0 | 0.00 | 0.00 | 0.00 | 74 | 1016.6 |
| 20260510101511 | 37 | 304 | 3.0 | 7.0 | 0.00 | 0.00 | 0.00 | 74 | 1016.3 |
| 20260510100007 | 38 | 276 | 4.0 | 7.0 | 0.00 | 0.00 | 0.00 | 72 | 1016.1 |
| 20260510094505 | 38 | 281 | 4.0 | 9.0 | 0.00 | 0.00 | 0.00 | 72 | 1015.9 |
| 20260510093003 | 38 | 271 | 1.0 | 5.0 | 0.00 | 0.00 | 0.00 | 72 | 1015.7 |
| 20260510091559 | 38 | 300 | 1.0 | 5.0 | 0.00 | 0.00 | 0.00 | 71 | 1015.4 |
| 20260510090056 | 38 | 290 | 1.0 | 5.0 | 0.00 | 0.00 | 0.00 | 69 | 1015.4 |
| 20260510084553 | 39 | 270 | 0.0 | 6.0 | 0.00 | 0.00 | 0.00 | 68 | 1015.1 |
| 20260510083054 | 39 | 305 | 2.0 | 4.0 | 0.00 | 0.00 | 0.00 | 67 | 1015.0 |
| 20260510081549 | 40 | 266 | 1.0 | 5.0 | 0.00 | 0.00 | 0.00 | 65 | 1014.9 |
| 20260510080044 | 40 | 267 | 0.0 | 2.0 | 0.00 | 0.00 | 0.00 | 64 | 1014.9 |
| 20260510074541 | 41 | 293 | 1.0 | 5.0 | 0.00 | 0.00 | 0.00 | 61 | 1014.7 |
| 20260510073038 | 42 | 226 | 0.0 | 4.0 | 0.00 | 0.00 | 0.00 | 59 | 1014.6 |
| 20260510071545 | 41 | 245 | 0.0 | 3.0 | 0.00 | 0.00 | 0.00 | 59 | 1014.5 |
| 20260510070034 | 42 | 255 | 0.0 | 3.0 | 0.00 | 0.00 | 0.00 | 58 | 1014.5 |
| 20260510064533 | 42 | 282 | 0.0 | 1.0 | 0.00 | 0.00 | 0.00 | 57 | 1014.4 |
| 20260510063031 | 42 | 275 | 0.0 | 2.0 | 0.00 | 0.00 | 0.00 | 56 | 1014.3 |
| 20260510061540 | 43 | 252 | 0.0 | 3.0 | 0.00 | 0.00 | 0.00 | 55 | 1014.3 |
| 20260510060030 | 43 | 281 | 0.0 | 5.0 | 0.00 | 0.00 | 0.00 | 54 | 1014.3 |
| 20260510054527 | 44 | 300 | 5.0 | 11.0 | 0.00 | 0.00 | 0.00 | 53 | 1014.1 |
| 20260510053022 | 43 | 259 | 0.0 | 3.0 | 0.00 | 0.00 | 0.00 | 53 | 1014.0 |
| 20260510051521 | 43 | 214 | 0.0 | 3.0 | 0.00 | 0.00 | 0.00 | 54 | 1013.9 |
| 20260510050023 | 42 | 274 | 0.0 | 2.0 | 0.00 | 0.00 | 0.00 | 55 | 1013.8 |
| 20260510044518 | 41 | 243 | 0.0 | 3.0 | 0.00 | 0.00 | 0.00 | 59 | 1013.7 |
| 20260510043021 | 41 | 215 | 0.0 | 3.0 | 0.00 | 0.00 | 0.00 | 59 | 1013.7 |
| 20260510041516 | 40 | 210 | 0.0 | 2.0 | 0.00 | 0.00 | 0.00 | 63 | 1013.6 |
| 20260510040116 | 39 | 186 | 0.0 | 1.0 | 0.00 | 0.00 | 0.00 | 64 | 1013.6 |
| 20260510034514 | 39 | 218 | 0.0 | 1.0 | 0.00 | 0.00 | 0.00 | 65 | 1013.6 |
| 20260510033024 | 39 | 188 | 0.0 | 0.0 | 0.00 | 0.00 | 0.00 | 65 | 1013.5 |
| 20260510031520 | 40 | 186 | 0.0 | 0.0 | 0.00 | 0.00 | 0.00 | 63 | 1013.3 |
| 20260510030006 | 41 | 285 | 0.0 | 1.0 | 0.00 | 0.00 | 0.00 | 60 | 1013.2 |
| 20260510024501 | 42 | 246 | 0.0 | 2.0 | 0.00 | 0.00 | 0.00 | 56 | 1013.1 |
| 20260510023056 | 44 | 276 | 0.0 | 3.0 | 0.00 | 0.00 | 0.00 | 53 | 1013.0 |
| 20260510021554 | 44 | 290 | 1.0 | 3.0 | 0.00 | 0.00 | 0.00 | 52 | 1012.8 |
| 20260510020052 | 44 | 290 | 0.0 | 1.0 | 0.00 | 0.00 | 0.00 | 52 | 1012.5 |
| 20260510014549 | 45 | 8 | 0.0 | 2.0 | 0.00 | 0.00 | 0.00 | 51 | 1012.3 |
| 20260510013051 | 45 | 12 | 0.0 | 2.0 | 0.00 | 0.00 | 0.00 | 49 | 1011.9 |
| 20260510011644 | 46 | 349 | 1.0 | 4.0 | 0.00 | 0.00 | 0.00 | 48 | 1011.6 |
| 20260510010043 | 47 | 4 | 4.0 | 9.0 | 0.00 | 0.00 | 0.00 | 45 | 1011.3 |
| 20260510004545 | 48 | 358 | 5.0 | 11.0 | 0.00 | 0.00 | 0.00 | 43 | 1011.1 |
| 20260510003100 | 49 | 321 | 5.0 | 16.0 | 0.00 | 0.00 | 0.00 | 42 | 1010.9 |
| 20260510001540 | 51 | 355 | 7.0 | 18.0 | 0.00 | 0.00 | 0.00 | 39 | 1010.7 |
| 20260510000040 | 51 | 347 | 8.0 | 16.0 | 0.00 | 0.00 | 0.00 | 39 | 1010.4 |
| 20260509234536 | 51 | 21 | 12.0 | 18.0 | 0.00 | 0.00 | 0.00 | 39 | 1010.3 |
| 20260509233030 | 52 | 326 | 9.0 | 19.0 | 0.00 | 0.00 | 0.00 | 39 | 1010.0 |
| 20260509231532 | 53 | 333 | 8.0 | 17.0 | 0.00 | 0.00 | 0.00 | 38 | 1009.8 |
| 20260509230031 | 53 | 331 | 7.0 | 15.0 | 0.00 | 0.00 | 0.00 | 38 | 1009.6 |
| 20260509224525 | 53 | 300 | 6.0 | 14.0 | 0.00 | 0.00 | 0.00 | 38 | 1009.3 |
| 20260509223024 | 53 | 345 | 8.0 | 14.0 | 0.00 | 0.00 | 0.00 | 38 | 1009.1 |
| 20260509221519 | 54 | 4 | 10.0 | 14.0 | 0.00 | 0.00 | 0.00 | 35 | 1008.9 |
| 20260509220018 | 52 | 278 | 5.0 | 15.0 | 0.00 | 0.00 | 0.00 | 38 | 1008.7 |
| 20260509214518 | 53 | 338 | 7.0 | 17.0 | 0.00 | 0.00 | 0.00 | 39 | 1008.7 |
| 20260509213119 | 52 | 27 | 7.0 | 13.0 | 0.00 | 0.00 | 0.00 | 38 | 1008.7 |
| 20260509211515 | 53 | 311 | 5.0 | 12.0 | 0.00 | 0.00 | 0.00 | 39 | 1008.6 |
| 20260509210020 | 53 | 21 | 10.0 | 16.0 | 0.00 | 0.00 | 0.00 | 36 | 1008.5 |
| 20260509204513 | 52 | 356 | 10.0 | 16.0 | 0.00 | 0.00 | 0.00 | 38 | 1008.6 |
| 20260509203017 | 53 | 314 | 7.0 | 17.0 | 0.00 | 0.00 | 0.00 | 38 | 1008.4 |
| 20260509201511 | 52 | 338 | 5.0 | 15.0 | 0.00 | 0.00 | 0.00 | 40 | 1008.4 |
| 20260509200008 | 52 | 338 | 10.0 | 16.0 | 0.00 | 0.00 | 0.00 | 40 | 1008.4 |
| 20260509194511 | 51 | 347 | 10.0 | 18.0 | 0.00 | 0.00 | 0.00 | 39 | 1008.2 |
| 20260509193005 | 52 | 333 | 10.0 | 15.0 | 0.00 | 0.00 | 0.00 | 37 | 1008.3 |
| 20260509191504 | 51 | 37 | 10.0 | 19.0 | 0.00 | 0.00 | 0.00 | 38 | 1007.9 |
| 20260509190101 | 51 | 326 | 11.0 | 18.0 | 0.00 | 0.00 | 0.00 | 39 | 1008.0 |
| 20260509184603 | 51 | 311 | 13.0 | 19.0 | 0.00 | 0.00 | 0.00 | 39 | 1007.9 |
| 20260509183137 | 50 | 330 | 11.0 | 23.0 | 0.00 | 0.00 | 0.00 | 41 | 1007.8 |
| 20260509181612 | 51 | 318 | 12.0 | 18.0 | 0.00 | 0.00 | 0.00 | 41 | 1007.6 |
| 20260509180057 | 51 | 346 | 12.0 | 18.0 | 0.00 | 0.00 | 0.00 | 41 | 1007.4 |
| 20260509174554 | 50 | 333 | 12.0 | 20.0 | 0.00 | 0.00 | 0.00 | 42 | 1007.3 |